STARLINK-32332 (62490 NORAD) Tracking and Keplerian Element Data

This shows tracking and keplerian element data for the satellite.

Feedback or suggestion? Click here.




ElementValue
Catalog62490
NameSTARLINK-32332
Epoch Orbit523
Epoch Day32.37715311
Epoch Year2025
RAAN39.9115
Inclination43.0022
Eccentricity0.0001598
Argument of Perigee267.2395
Mean Anonmoly92.8282
Mean Motion15.50581679
Decay Rate2.171E-05
L11 62490U 25003D 25032.37715311 .00002171 00000+0 42822-4 0 9993
L22 62490 43.0022 39.9115 0001598 267.2395 92.8282 15.50581679 5237



Live tracking and technical data element details for STARLINK-32332 (NORAD 62490). STARLINK-32332 can be tracked NOW for your location showing map with azimuth and elevation plus other details from your city location.







IsCatalogInMostPopularTable: catalog: 62490, numindb: 19
Update: records affected: 1



GetName: 62490 STARLINK-32332

Hit Count: updated at: Mon, 19 May 2025 02:03:19 GMT